Fort Myers, FL

10:52 AM EST on February 14, 2016 (GMT -0500)
Page

Weather History for KFMY - November, 2014

Change the Weather History Date:

Tuesday, November 25, 2014

  Actual Average Record
Temperature  
Mean Temperature 81 °F 70 °F  
Max Temperature 86 °F 80 °F 89 °F (1992)
Min Temperature 76 °F 60 °F 34 °F (1970)
Degree Days  
Heating Degree Days 0 1  
Month to date heating degree days 28 10  
Since 1 July heating degree days 28 12  
Cooling Degree Days 16 6  
Month to date cooling degree days 134 188  
Year to date cooling degree days 3925 3836  
Growing Degree Days 30 (Base 50)    
Moisture  
Dew Point 75 °F    
Average Humidity 85    
Maximum Humidity 94    
Minimum Humidity 65    
Precipitation  
Precipitation 0.04 in 0.04 in 1.55 in (1922)
Month to date precipitation 1.62 1.71  
Year to date precipitation 39.42 53.97  
Sea Level Pressure  
Sea Level Pressure 29.96 in    
Wind  
Wind Speed 9 mph (South)    
Max Wind Speed 20 mph    
Max Gust Speed 26 mph    
Visibility 9 miles    
Events Rain    
T = Trace of Precipitation, MM = Missing Value Source: NWS Daily Summary

Daily Weather History Graph

Daily Weather History Graph

Search for Another Location

Airport or City:

Trip Planner

Search our weather history database for the weather conditions in past years. The results will help you decide how hot, cold, wet, or windy it might be!

Date:

Astronomy

Nov. 25, 2014 Rise Set
Actual Time 6:54 AM EST 5:34 PM EST
Civil Twilight 6:29 AM EST 5:59 PM EST
Nautical Twilight 6:00 AM EST 6:27 PM EST
Astronomical Twilight 5:32 AM EST 6:55 PM EST
Moon 9:41 AM EST (11/25) 8:53 PM EST (11/25)
Length of Visible Light 11h 30m
Length of Day
10h 40m
Waxing Crescent, 12% of the Moon is Illuminated
Nov 25
Waxing Crescent
Nov 29
First Quarter
Dec 6
Full
Dec 14
Last Quarter
Dec 21
New

Hourly Weather History & Observations

Time (EST) Temp. Heat Index Dew Point Humidity Pressure Visibility Wind Dir Wind Speed Gust Speed Precip Events Conditions
12:53 AM 75.9 °F - 73.9 °F 94% 30.01 in 6.0 mi Calm Calm - 0.03 in Rain Light Rain
1:26 AM 75.9 °F - 75.0 °F 97% 30.00 in 8.0 mi Calm Calm - 0.01 in Rain Light Rain
1:34 AM 75.9 °F - 75.0 °F 97% 30.00 in 8.0 mi Calm Calm - 0.01 in Rain Light Rain
1:53 AM 75.9 °F - 75.0 °F 97% 30.00 in 8.0 mi Calm Calm - 0.01 in   Overcast
2:53 AM 77.0 °F - 75.0 °F 94% 29.99 in 7.0 mi SSE 4.6 mph - N/A   Overcast
3:53 AM 77.0 °F - 75.9 °F 96% 29.98 in 6.0 mi SSE 6.9 mph - N/A   Overcast
4:49 AM 77.0 °F - 75.2 °F 94% 29.97 in 7.0 mi SSE 6.9 mph - N/A   Mostly Cloudy
4:53 AM 77.0 °F - 75.9 °F 96% 29.98 in 7.0 mi SSE 5.8 mph - N/A   Mostly Cloudy
5:16 AM 77.0 °F - 75.9 °F 96% 29.97 in 8.0 mi SSE 6.9 mph - N/A   Overcast
5:53 AM 77.0 °F - 75.9 °F 96% 29.99 in 9.0 mi SSE 5.8 mph - N/A   Mostly Cloudy
6:53 AM 77.0 °F - 75.9 °F 96% 29.99 in 9.0 mi SSE 5.8 mph - N/A   Scattered Clouds
7:53 AM 78.1 °F - 75.9 °F 93% 29.99 in 8.0 mi SSE 9.2 mph - N/A   Scattered Clouds
8:53 AM 79.0 °F - 75.9 °F 90% 30.01 in 10.0 mi SSE 8.1 mph - N/A   Mostly Cloudy
9:24 AM 80.1 °F 85.4 °F 75.9 °F 87% 29.99 in 10.0 mi South 8.1 mph - N/A   Mostly Cloudy
9:53 AM 81.0 °F 87.3 °F 75.9 °F 85% 30.00 in 10.0 mi South 9.2 mph - N/A   Overcast
10:53 AM 84.0 °F 91.2 °F 73.9 °F 72% 29.99 in 10.0 mi South 8.1 mph - N/A   Mostly Cloudy
11:53 AM 84.0 °F 91.2 °F 73.9 °F 72% 29.96 in 10.0 mi South 9.2 mph - N/A   Overcast
12:06 PM 84.0 °F 91.9 °F 75.0 °F 74% 29.94 in 10.0 mi SSW 11.5 mph - N/A   Overcast
12:15 PM 84.0 °F 91.9 °F 75.0 °F 74% 29.94 in 10.0 mi SSW 9.2 mph - N/A   Overcast
12:53 PM 84.9 °F 93.3 °F 75.0 °F 72% 29.94 in 10.0 mi SSW 13.8 mph - N/A   Scattered Clouds
1:53 PM 84.9 °F 92.1 °F 73.9 °F 69% 29.89 in 10.0 mi South 12.7 mph 21.9 mph N/A   Partly Cloudy
2:53 PM 86.0 °F 93.0 °F 73.0 °F 65% 29.89 in 10.0 mi South 16.1 mph 24.2 mph N/A   Mostly Cloudy
3:53 PM 82.9 °F 89.4 °F 73.9 °F 74% 29.90 in 10.0 mi SSW 12.7 mph 23.0 mph N/A   Mostly Cloudy
4:53 PM 81.0 °F 86.2 °F 73.9 °F 79% 29.91 in 10.0 mi South 15.0 mph 24.2 mph N/A   Overcast
5:53 PM 80.1 °F 84.5 °F 73.9 °F 81% 29.92 in 10.0 mi SSW 10.4 mph - N/A   Overcast
6:53 PM 80.1 °F 84.2 °F 73.0 °F 79% 29.92 in 10.0 mi South 10.4 mph - N/A   Overcast
7:53 PM 80.1 °F 84.2 °F 73.0 °F 79% 29.93 in 10.0 mi South 6.9 mph - N/A   Overcast
8:53 PM 79.0 °F - 73.0 °F 82% 29.92 in 10.0 mi South 8.1 mph - N/A   Mostly Cloudy
9:53 PM 78.1 °F - 73.0 °F 84% 29.92 in 10.0 mi South 6.9 mph - N/A   Partly Cloudy
10:53 PM 78.1 °F - 73.0 °F 84% 29.91 in 10.0 mi South 6.9 mph - N/A   Scattered Clouds
11:53 PM 78.1 °F - 73.9 °F 87% 29.88 in 10.0 mi SSE 8.1 mph - N/A   Mostly Cloudy